Regional Weather Roundup
Issued by NWS

Home | Current Version | Previous Version | Text Only | Print | Product List | Glossary On
Versions: 1 2 3 4 5 6 7 8 9 10 11 12 13 14 15 16 17 18 19 20 21 22 23 24 25 26 27 28 29 30 31 32 33 34 35 36 37 38 39 40 41 42 43 44 45 46 47 48 49 50
000
ASUS43 KOAX 280502
RWRNE

WEATHER ROUNDUP FOR NEBRASKA
NATIONAL WEATHER SERVICE OMAHA NE
1100 PM CST SAT DEC 27 2014

NOTES: SATELLITE DATA IS BEING USED TO AUGMENT CLOUD COVER ABOVE
       12000 FEET.
       "FAIR" INDICATES FEW OR NO CLOUDS BELOW 12,000 FEET WITH NO
       SIGNIFICANT WEATHER AND/OR OBSTRUCTIONS TO VISIBILITY.

  * THESE STATIONS DO NOT REPORT WEATHER SUCH AS RAIN...SNOW OR FOG.

NEZ001>004-019>022-054>056-280600-
NEBRASKA PANHANDLE

CITY           SKY/WX    TMP DP  RH WIND       PRES   REMARKS
SCOTTSBLUFF    MOCLDY     2  -1  88 N7        30.09S WCI -11
ALLIANCE       MOCLDY     0  -4  83 W5        30.07S WCI -10
CHADRON        CLEAR      4   0  83 W5        30.08F WCI  -5
KIMBALL        PTCLDY     2  -4  77 W5        30.04F WCI  -8
SIDNEY         MOCLDY     3  -3  76 NW14      30.09S WCI -15
$$

NEZ057>060-069>072-079>082-280600-
SOUTHWEST NEBRASKA

CITY           SKY/WX    TMP DP  RH WIND       PRES   REMARKS
NORTH PLATTE   PTCLDY     1  -2  87 NW5       30.15S WCI  -9
IMPERIAL       PTCLDY     7   1  76 NW5       30.14F WCI  -2
LEXINGTON      PTCLDY     6   3  88 NW3       30.17S
MCCOOK         CLEAR      8   5  87 W7        30.18F WCI  -3
OGALLALA       PTCLDY     4   1  87 W9        30.13F WCI -11
$$

NEZ005>010-023>029-035>040-094-280600-
NORTH CENTRAL NEBRASKA

CITY           SKY/WX    TMP DP  RH WIND       PRES   REMARKS
VALENTINE      PTCLDY     5   1  83 SW7       30.09S WCI  -7
AINSWORTH      CLEAR     11   6  78 SW10      30.08F WCI  -2
BROKEN BOW     CLEAR     16   8  71 W8        30.13S WCI   5
O`NEILL        CLEAR     10   9  94 SW5       30.10F WCI   2
ORD            PTCLDY     6   4  91 CALM      30.13F
$$

NEZ041-046>049-061>064-073>077-083>087-280600-
SOUTH CENTRAL NEBRASKA

CITY           SKY/WX    TMP DP  RH WIND       PRES   REMARKS
GRAND ISLAND     N/A     15  10  80 W12       30.19S WCI   2
AURORA         CLEAR     15  11  86 W12       30.18S WCI   1
HASTINGS       CLEAR     13   8  81 SW7       30.18R WCI   3
HEBRON         FAIR      19  13  79 SW3       30.22F
HOLDREGE       CLEAR     18  12  77 W9        30.18S WCI   7
KEARNEY *      CLEAR     16   9  73 SW7       30.18S WCI   6
YORK           CLEAR     12  10  92 SW8       30.19S WCI   1
$$

NEZ011>018-030>034-042>045-280600-
NORTHEAST NEBRASKA

CITY           SKY/WX    TMP DP  RH WIND       PRES   REMARKS
NORFOLK        CLEAR     15  10  80 SW8       30.15S WCI   4
ALBION         PTCLDY    15  11  82 NW3       30.16S
BLAIR          CLEAR     18  14  84 S7        30.19F WCI   9
COLUMBUS *     CLEAR      7  -2  66 NW5       30.19S WCI  -2
FREMONT        CLEAR     18  14  83 SW6       30.20F WCI  10
TEKAMAH        CLEAR     14  10  84 S3        30.21F
WAYNE          CLEAR     10   8  90 CALM      30.17R
$$

NEZ050>053-065>068-078-088>093-280600-
SOUTHEAST NEBRASKA

CITY           SKY/WX    TMP DP  RH WIND       PRES   REMARKS
LINCOLN        CLEAR     15  11  83 S5        30.24F WCI   8
OMAHA EPPLEY   CLEAR     19  15  84 S3        30.24F
BEATRICE       CLEAR     16  13  88 W5        30.23F WCI   9
FALLS CITY     CLEAR     20  16  84 W7        30.26F WCI  11
NEBRASKA CITY  CLEAR     17  13  83 S3        30.24S
PLATTSMOUTH    CLEAR     18  13  84 SW6       30.23S WCI   9
$$

NEZ044-045-051>053-067-280600-
OMAHA AREA

CITY           SKY/WX    TMP DP  RH WIND       PRES   REMARKS
OMAHA EPPLEY   CLEAR     19  15  84 S3        30.24F
BLAIR          CLEAR     18  14  84 S7        30.19F WCI   9
FREMONT        CLEAR     18  14  83 SW6       30.20F WCI  10
MILLARD        CLEAR     18  15  89 CALM      30.23F
OFFUTT AFB     CLEAR     18  15  88 S5        30.23F WCI  11
PLATTSMOUTH    CLEAR     18  13  84 SW6       30.23S WCI   9
WAHOO          FAIR      17  13  82 SW5       30.21F WCI  10
$$


USA.gov is the U.S. government's official web portal to all federal, state and local government web resources and services.